Location: Bronnegerveen
(52.9548°N, 6.8388°E)
Time: 02:36:48
(UTC+00:00)

Cosmos 1814 Rocket - Pass Details

Date: 15 June 2025
Orbit: 740 x 783 km, 74.1° (Epoch: 07 July)

Event Time Altitude Azimuth Distance (km) Brightness Sun altitude
Rises 01:08:49 0° 330° (NNW) 3,280 7.9 -10.9°
Reaches altitude 10° 01:11:17 10° 325° (NW) 2,350 7.0 -10.8°
Maximum altitude 01:16:22 46° 254° (WSW) 1,049 4.4 -10.5°
Enters shadow 01:21:15 11° 183° (S) 2,272 5.9 -10.2°
